Home   Weather   Rabat   Past weeks

Flag for Morocco Past Weather in Rabat, Morocco — Yesterday and Last 2 Weeks

Now
73 °F

Scattered clouds.


Feels Like: 73 °F
Forecast: 67 / 75 °F
Wind: 7 mph from North

Location: Rabat-Sale

Current Time: Aug 30, 2016 at 8:09:35 PM

Latest Report: Aug 30, 2016 at 7:30 PM


Visibility: 5 mi

Pressure: 30.04 "Hg

Humidity: 83%

Dew Point: 68 °F

Location of RabatLocation

Past Weather in Rabat — Graph

°F

Rabat Temperature Yesterday

Maximum temperature yesterday: 88 °F (at 1:30 PM)
Minimum temperature yesterday: 68 °F (at 2:00 AM)
Average temperature yesterday: 76 °F

High & Low Weather Summary for the Past Weeks

 TemperatureHumidityPressure
High99 °F (Aug 16, 12:30 PM)94% (Aug 17, 4:00 AM)32.93 "Hg (Aug 17, 4:00 AM)
Low61 °F (Aug 19, 5:30 AM)24% (Aug 16, 12:30 PM)29.80 "Hg (Aug 25, 3:00 AM)
Average75 °F75%29.98 "Hg
* Reported Aug 15 7:00 PM — Aug 30 7:00 PM, Rabat, Weather by CustomWeather, © 2016

Note: Actual official high and low records may vary slightly from our data, if they occured in-between our weather recording intervals... More about our weather records

Advertising

Rabat Weather History for the Previous 24 Hours

Scroll right to see more
 ConditionsComfort  
Time TempWeatherWind HumidityBarometerVisibility
7:00 PM
Tue, Aug 30
75 °FScattered clouds.9 mph78%30.04 "Hg5 mi
6:30 PM77 °FScattered clouds.9 mph74%30.04 "Hg5 mi
6:00 PM77 °FClear.9 mph74%30.04 "Hg5 mi
5:30 PM77 °FClear.10 mph69%30.04 "Hg5 mi
5:00 PM79 °FClear.10 mph65%30.04 "Hg5 mi
4:30 PM79 °FClear.10 mph65%30.04 "Hg5 mi
4:00 PM79 °FClear.12 mph70%30.04 "Hg2 mi
3:30 PM79 °FClear.10 mph65%30.04 "Hg3 mi
3:00 PM79 °FClear.10 mph70%30.04 "Hg3 mi
2:30 PM79 °FClear.10 mph70%30.04 "Hg3 mi
2:00 PM79 °FClear.10 mph70%30.07 "Hg3 mi
1:30 PM81 °FPassing clouds.9 mph66%30.07 "HgN/A
1:00 PM81 °FPassing clouds.8 mph62%30.07 "HgN/A
12:30 PM81 °FPassing clouds.7 mph62%30.07 "HgN/A
12:00 PM81 °FPassing clouds.6 mph62%30.07 "HgN/A
11:30 AM79 °FPassing clouds.5 mph70%30.07 "HgN/A
11:00 AM79 °FPassing clouds.6 mph70%30.07 "HgN/A
10:30 AM77 °FPassing clouds.5 mph74%30.07 "HgN/A
10:00 AM77 °FPassing clouds.5 mph74%30.07 "HgN/A
9:30 AM75 °FSunny.3 mph78%30.07 "Hg10 mi
9:00 AM73 °FPassing clouds.3 mph83%30.07 "HgN/A
8:30 AM70 °FScattered clouds.No wind88%30.07 "HgN/A
8:00 AM66 °FScattered clouds.No wind94%30.04 "HgN/A
7:30 AM66 °FScattered clouds.2 mph88%30.04 "HgN/A
7:00 AM66 °FScattered clouds.No wind88%30.04 "HgN/A
6:30 AM68 °FPassing clouds.2 mph88%30.04 "HgN/A
6:00 AM68 °FPassing clouds.2 mph88%30.04 "HgN/A
5:30 AM70 °FPassing clouds.2 mph83%30.04 "HgN/A
5:00 AM68 °FPassing clouds.3 mph88%30.04 "HgN/A
4:30 AM66 °FClear.No wind94%30.04 "HgN/A
4:00 AM68 °FClear.2 mph88%30.04 "Hg10 mi
3:30 AM68 °FClear.2 mph88%30.04 "Hg10 mi
3:00 AM68 °FClear.2 mph88%30.07 "Hg10 mi
2:30 AM68 °FClear.3 mph88%30.07 "Hg10 mi
1:30 AM68 °FClear.2 mph88%30.07 "Hg10 mi
1:00 AM68 °FClear.No wind88%30.07 "Hg10 mi
12:30 AM70 °FClear.2 mph83%30.07 "Hg10 mi
12:00 AM68 °FClear.1 mph88%30.07 "Hg10 mi
11:30 PM
Mon, Aug 29
68 °FClear.No wind83%30.07 "Hg10 mi
11:00 PM68 °FClear.No wind83%30.09 "Hg10 mi
10:30 PM68 °FClear.No wind88%30.09 "Hg10 mi
10:00 PM70 °FClear.No wind83%30.09 "Hg5 mi
9:30 PM72 °FPassing clouds.2 mph78%30.07 "Hg5 mi
9:00 PM73 °FPassing clouds.3 mph74%30.07 "Hg5 mi
8:00 PM77 °FPassing clouds.8 mph61%30.07 "Hg5 mi
Weather by CustomWeather, © 2016

See weather overviewHow to use our weather pages